McCook, NE

2:55 PM CST on December 15, 2019 (GMT -0600)
McCook Municipal

Weather History for KMCK - September, 2019

Change the Weather History Date:

Tuesday, September 10, 2019

  Actual Average Record
Temperature  
Mean Temperature 77 °F 67 °F  
Max Temperature 91 °F 82 °F 101 °F (1936)
Min Temperature 62 °F 52 °F 33 °F (1959)
Cooling Degree Days 12    
Growing Degree Days 27 (Base 50)    
Moisture  
Dew Point 64 °F    
Average Humidity 67    
Maximum Humidity 93    
Minimum Humidity 41    
Precipitation  
Precipitation 0.00 in 0.05 in 0.93 in (2007)
Month to date precipitation 0.17 0.51  
Year to date precipitation 17.50 18.22  
Sea Level Pressure  
Sea Level Pressure 29.81 in    
Wind  
Wind Speed 8 mph ()    
Max Wind Speed 24 mph    
Max Gust Speed 34 mph    
Visibility 9.5 miles    
Events      
T = Trace of Precipitation, MM = Missing Value Source: Averaged Metar Reports

Daily Weather History Graph

Daily Weather History Graph

Search for Another Location

Airport or City:

Astronomy

Sep. 10, 2019 Rise Set
Actual Time 7:18 AM CDT 7:59 PM CDT
Civil Twilight 6:50 AM CDT 8:27 PM CDT
Nautical Twilight 6:18 AM CDT 8:59 PM CDT
Astronomical Twilight 5:44 AM CDT 9:32 PM CDT
Moon 6:37 PM CDT (9/10) 3:45 AM CDT (9/10)
Length of Visible Light 13h 36m
Length of Day
12h 41m
Waxing Gibbous, 89% of the Moon is Illuminated
Sep 10
Waxing Gibbous
Sep 13
Full
Sep 21
Last Quarter
Sep 28
New
Oct 5
First Quarter

Hourly Weather History & Observations

Time (CDT) Temp. Heat Index Dew Point Humidity Pressure Visibility Wind Dir Wind Speed Gust Speed Precip Events Conditions
12:53 AM 66.9 °F - 64.9 °F 93% 29.82 in 10.0 mi Calm Calm - N/A   Unknown
1:53 AM 66.0 °F - 64.0 °F 93% 29.83 in 10.0 mi Calm Calm - N/A   Unknown
2:53 AM 64.0 °F - 62.1 °F 93% 29.83 in 9.0 mi NNW 5.8 mph - N/A   Unknown
3:53 AM 64.0 °F - 61.0 °F 90% 29.81 in 10.0 mi Calm Calm - N/A   Unknown
4:53 AM 63.0 °F - 61.0 °F 93% 29.83 in 8.0 mi East 4.6 mph - N/A   Unknown
5:53 AM 63.0 °F - 61.0 °F 93% 29.85 in 8.0 mi East 8.1 mph - N/A   Unknown
6:53 AM 62.1 °F - 60.1 °F 93% 29.87 in 7.0 mi NE 6.9 mph - N/A   Unknown
7:53 AM 64.0 °F - 61.0 °F 90% 29.88 in 7.0 mi East 3.5 mph - N/A   Unknown
8:53 AM 68.0 °F - 63.0 °F 84% 29.89 in 10.0 mi ESE 5.8 mph - N/A   Unknown
9:53 AM 75.0 °F - 64.9 °F 71% 29.88 in 10.0 mi SE 11.5 mph - N/A   Unknown
10:53 AM 77.0 °F - 64.9 °F 66% 29.87 in 10.0 mi SSE 11.5 mph - N/A   Unknown
11:53 AM 82.0 °F 84.1 °F 66.0 °F 58% 29.86 in 10.0 mi SSE 9.2 mph - N/A   Unknown
12:53 PM 84.0 °F 86.3 °F 66.0 °F 55% 29.85 in 10.0 mi SE 13.8 mph 21.9 mph N/A   Unknown
1:53 PM 87.1 °F 89.9 °F 66.9 °F 51% 29.83 in 10.0 mi SE 18.4 mph 24.2 mph N/A   Unknown
2:53 PM 88.0 °F 90.3 °F 66.0 °F 48% 29.82 in 10.0 mi SSE 19.6 mph 31.1 mph N/A   Unknown
3:53 PM 90.0 °F 92.4 °F 66.0 °F 45% 29.78 in 10.0 mi SSE 20.7 mph 29.9 mph N/A   Unknown
4:53 PM 91.9 °F 94.1 °F 64.9 °F 41% 29.75 in 10.0 mi SSE 20.7 mph 34.5 mph N/A   Unknown
5:53 PM 90.0 °F 91.7 °F 64.9 °F 43% 29.75 in 10.0 mi SSE 24.2 mph 33.4 mph N/A   Unknown
6:53 PM 88.0 °F 89.3 °F 64.0 °F 45% 29.74 in 10.0 mi SSE 19.6 mph 28.8 mph N/A   Unknown
7:53 PM 84.0 °F 85.4 °F 64.0 °F 51% 29.75 in 10.0 mi SSE 18.4 mph 26.5 mph N/A   Unknown
8:53 PM 82.0 °F 83.1 °F 63.0 °F 52% 29.74 in 10.0 mi SSE 15.0 mph 28.8 mph N/A   Unknown
9:53 PM 79.0 °F - 64.0 °F 60% 29.76 in 10.0 mi South 18.4 mph 27.6 mph N/A   Unknown
10:53 PM 80.1 °F 81.2 °F 62.1 °F 54% 29.75 in 10.0 mi South 18.4 mph 33.4 mph N/A   Unknown
11:53 PM 78.1 °F - 62.1 °F 58% 29.76 in 10.0 mi South 19.6 mph 27.6 mph N/A   Unknown